Change the Weather History Date:

Thursday, January 10, 2013

  Actual Average Record
Temperature  
Mean Temperature 42 °F -  
Max Temperature 46 °F 43 °F 80 °F (1990)
Min Temperature 39 °F 19 °F -5 °F (1973)
Degree Days  
Heating Degree Days 22    
Moisture  
Dew Point 41 °F    
Average Humidity 97    
Maximum Humidity 100    
Minimum Humidity 87    
Precipitation  
Precipitation 0.26 in - - ()
Sea Level Pressure  
Sea Level Pressure 29.90 in    
Wind  
Wind Speed 8 mph (SW)    
Max Wind Speed 21 mph    
Max Gust Speed 29 mph    
Visibility 7 miles    
Events Fog , Rain    
Averages and records for this station are not official NWS values.
T = Trace of Precipitation, MM = Missing Value Source: NWS Daily Summary

Daily Weather History Graph

Daily Weather History Graph

Search for Another Location

Airport or City:

Trip Planner

Search our weather history database for the weather conditions in past years. The results will help you decide how hot, cold, wet, or windy it might be!

Date:

Astronomy

Jan. 10, 2013 Rise Set
Actual Time 7:50 AM CST 5:43 PM CST
Civil Twilight 7:22 AM CST 6:11 PM CST
Nautical Twilight 6:50 AM CST 6:43 PM CST
Astronomical Twilight 6:19 AM CST 7:14 PM CST
Moon 6:32 AM CST (1/10) 4:52 PM CST (1/10)
Length of Visible Light 10h 49m
Length of Day
9h 52m
Waning Crescent, 2% of the Moon is Illuminated
Jan 10
Waning Crescent
Jan 11
New
Jan 18
First Quarter
Jan 26
Full
Feb 3
Last Quarter

Hourly Weather History & Observations

Time (CST) Temp. Windchill Dew Point Humidity Pressure Visibility Wind Dir Wind Speed Gust Speed Precip Events Conditions
12:21 AM 39.2 °F 30.2 °F 39.2 °F 100% 30.12 in 4.0 mi NE 17.3 mph - 0.00 in Rain Light Rain
12:28 AM 39.2 °F 31.6 °F 39.2 °F 100% 30.12 in 4.0 mi ENE 12.7 mph - 0.00 in Rain Light Rain
12:53 AM 39.0 °F 30.6 °F 39.0 °F 100% 30.11 in 4.0 mi ENE 15.0 mph - 0.02 in Rain Rain
1:35 AM 39.2 °F 32.5 °F 39.2 °F 100% 30.09 in 5.0 mi ENE 10.4 mph - 0.04 in Rain Light Rain
1:53 AM 39.0 °F 31.8 °F 39.0 °F 100% 30.09 in 5.0 mi ENE 11.5 mph - 0.04 in Rain Light Rain
2:19 AM 39.2 °F 32.5 °F 39.2 °F 100% 30.07 in 2.5 mi ENE 10.4 mph - 0.02 in Rain Light Rain
2:29 AM 39.2 °F 33.0 °F 39.2 °F 100% 30.07 in 3.0 mi NE 9.2 mph - 0.02 in Rain Light Rain
2:53 AM 39.9 °F 33.4 °F 39.9 °F 100% 30.06 in 9.0 mi NE 10.4 mph - 0.03 in Rain Light Rain
3:53 AM 39.9 °F 35.1 °F 39.9 °F 100% 30.03 in 7.0 mi NE 6.9 mph - 0.03 in Rain Light Rain
4:53 AM 39.9 °F - 39.9 °F 100% 30.01 in 5.0 mi Calm Calm - 0.01 in Rain Rain
5:08 AM 39.2 °F - 39.2 °F 100% 30.01 in 1.8 mi Calm Calm - 0.06 in Rain Heavy Rain
5:15 AM 39.2 °F - 39.2 °F 100% 30.00 in 2.0 mi Calm Calm - 0.09 in Rain Heavy Rain
5:25 AM 39.2 °F 35.9 °F 39.2 °F 100% 30.00 in 4.0 mi North 4.6 mph - 0.11 in Rain Heavy Rain
5:40 AM 39.2 °F 37.0 °F - N/A% 29.99 in 4.0 mi North 3.5 mph - 0.13 in Rain Rain
5:53 AM 39.9 °F 34.5 °F - N/A% 29.99 in 7.0 mi North 8.1 mph - 0.13 in Rain Light Rain
6:12 AM 39.2 °F 35.0 °F - N/A% 29.99 in 10.0 mi NNE 5.8 mph - 0.00 in Rain Light Rain
6:46 AM 39.2 °F 35.9 °F 39.2 °F 100% 29.97 in 2.5 mi NNE 4.6 mph - 0.00 in   Overcast
6:53 AM 39.0 °F 34.8 °F 39.0 °F 100% 29.98 in 2.5 mi North 5.8 mph - 0.00 in   Overcast
7:02 AM 39.2 °F 35.0 °F 39.2 °F 100% 29.96 in 3.0 mi North 5.8 mph - N/A   Overcast
7:53 AM 39.2 °F 35.0 °F - N/A% 29.95 in 9.0 mi NE 5.8 mph - N/A   Overcast
8:18 AM 39.2 °F 37.0 °F - N/A% 29.95 in 1.8 mi NE 3.5 mph - N/A   Overcast
8:31 AM 39.2 °F - - N/A% 29.94 in 0.5 mi Calm Calm - N/A Fog Fog
8:53 AM 39.9 °F 36.7 °F 39.9 °F 100% 29.95 in 0.5 mi NNE 4.6 mph - N/A Fog Fog
9:53 AM 39.9 °F 35.1 °F - N/A% 29.93 in 0.2 mi ENE 6.9 mph - N/A Fog Fog
10:53 AM 41.0 °F 37.1 °F 41.0 °F 100% 29.94 in 0.2 mi WNW 5.8 mph - N/A Fog Fog
11:17 AM 41.0 °F 37.1 °F 41.0 °F 100% 29.91 in 1.2 mi West 5.8 mph - N/A   Overcast
11:34 AM 41.0 °F - 41.0 °F 100% 29.90 in 2.0 mi Calm Calm - N/A   Overcast
11:53 AM 42.1 °F 37.7 °F - N/A% 29.92 in 3.0 mi West 6.9 mph - N/A   Overcast
12:23 PM 42.8 °F - 41.0 °F 93% 29.87 in 10.0 mi Calm Calm - N/A   Overcast
12:35 PM 42.8 °F - 41.0 °F 93% 29.87 in 10.0 mi Calm Calm - N/A   Overcast
12:53 PM 42.1 °F - 41.0 °F 96% 29.88 in 10.0 mi Calm Calm - N/A   Overcast
1:53 PM 44.1 °F 42.5 °F 43.0 °F 96% 29.82 in 10.0 mi NW 3.5 mph - N/A   Overcast
2:10 PM 44.6 °F 42.2 °F 42.8 °F 93% 29.81 in 10.0 mi WNW 4.6 mph - N/A   Overcast
2:53 PM 45.0 °F 41.8 °F 43.0 °F 93% 29.83 in 10.0 mi West 5.8 mph - N/A   Overcast
3:53 PM 45.0 °F 39.7 °F 44.1 °F 97% 29.83 in 5.0 mi West 10.4 mph - N/A   Overcast
4:03 PM 44.6 °F 39.2 °F 44.6 °F 100% 29.83 in 9.0 mi WSW 10.4 mph - N/A   Overcast
4:13 PM 46.4 °F 44.3 °F 44.6 °F 93% 29.82 in 10.0 mi WSW 4.6 mph - N/A   Overcast
4:53 PM 46.0 °F 44.8 °F 44.1 °F 93% 29.82 in 10.0 mi SW 3.5 mph - N/A   Overcast
5:05 PM 46.4 °F 45.2 °F 42.8 °F 87% 29.80 in 10.0 mi South 3.5 mph - N/A   Mostly Cloudy
5:32 PM 44.6 °F 41.4 °F 42.8 °F 93% 29.81 in 10.0 mi SSW 5.8 mph - N/A   Mostly Cloudy
5:53 PM 45.0 °F 42.6 °F 43.0 °F 93% 29.80 in 10.0 mi SSE 4.6 mph - N/A   Overcast
6:29 PM 42.8 °F 38.0 °F 41.0 °F 93% 29.77 in 10.0 mi South 8.1 mph - N/A   Scattered Clouds
6:49 PM 39.2 °F 35.9 °F 39.2 °F 100% 29.77 in 10.0 mi SSW 4.6 mph - N/A   Partly Cloudy
6:53 PM 39.0 °F 32.8 °F 39.0 °F 100% 29.80 in 10.0 mi SW 9.2 mph - N/A   Partly Cloudy
7:06 PM 42.8 °F 38.6 °F 42.8 °F 100% 29.77 in 10.0 mi SSW 6.9 mph - N/A   Mostly Cloudy
7:15 PM 41.0 °F 37.1 °F 39.2 °F 93% 29.78 in 10.0 mi SW 5.8 mph - N/A   Mostly Cloudy
7:31 PM 39.2 °F 35.0 °F 39.2 °F 100% 29.78 in 10.0 mi SW 5.8 mph - N/A   Scattered Clouds
7:53 PM 39.0 °F 34.8 °F 37.9 °F 96% 29.79 in 10.0 mi SSW 5.8 mph - N/A   Clear
8:53 PM 39.0 °F 33.4 °F 39.0 °F 100% 29.78 in 10.0 mi South 8.1 mph - N/A   Clear
9:06 PM 41.0 °F 35.2 °F 39.2 °F 93% 29.76 in 10.0 mi South 9.2 mph - N/A   Scattered Clouds
9:15 PM 42.8 °F 37.5 °F 41.0 °F 93% 29.77 in 8.0 mi South 9.2 mph - N/A   Mostly Cloudy
9:41 PM 42.8 °F 36.6 °F 41.0 °F 93% 29.75 in 9.0 mi South 11.5 mph - N/A   Partly Cloudy
9:53 PM 42.1 °F 35.2 °F 41.0 °F 96% 29.77 in 10.0 mi South 12.7 mph - N/A   Partly Cloudy
10:53 PM 43.0 °F 34.8 °F 41.0 °F 93% 29.73 in 10.0 mi South 18.4 mph 26.5 mph N/A   Clear
11:53 PM 43.0 °F 34.2 °F 41.0 °F 93% 29.72 in 10.0 mi South 20.7 mph 28.8 mph N/A   Clear